Time,TemperatureF,DewpointF,PressureIn,WindDirection,WindDirectionDegrees,WindSpeedMPH,WindSpeedGustMPH,Humidity,HourlyPrecipIn,Conditions,Clouds,dailyrainin,SoftwareType,DateUTC
2013-05-03 00:02:00,66.1,62.8,30.02,ENE,73,12.0,15.0,89,0.00,,,0.00,Wunderground v.1.15,2013-05-03 04:02:00,
2013-05-03 00:08:00,66.1,62.8,30.02,East,99,12.0,16.0,89,0.00,,,0.00,Wunderground v.1.15,2013-05-03 04:08:00,
2013-05-03 00:12:00,66.1,62.8,30.02,ENE,76,12.0,12.0,89,0.00,,,0.00,Wunderground v.1.15,2013-05-03 04:12:00,
2013-05-03 00:14:00,66.1,62.4,30.01,NE,55,13.0,13.0,88,0.00,,,0.00,Wunderground v.1.15,2013-05-03 04:14:00,
2013-05-03 00:20:00,66.1,62.4,30.01,ENE,68,14.0,14.0,88,0.00,,,0.00,Wunderground v.1.15,2013-05-03 04:20:00,
2013-05-03 00:26:00,66.1,62.8,30.01,NE,35,13.0,14.0,89,0.00,,,0.00,Wunderground v.1.15,2013-05-03 04:26:00,
2013-05-03 00:30:00,66.1,63.1,30.01,East,80,12.0,12.0,90,0.00,,,0.00,Wunderground v.1.15,2013-05-03 04:30:00,
2013-05-03 00:36:00,66.1,62.8,30.01,ENE,75,13.0,19.0,89,0.00,,,0.00,Wunderground v.1.15,2013-05-03 04:36:00,
2013-05-03 00:42:00,66.1,62.8,30.01,East,83,15.0,17.0,89,0.00,,,0.00,Wunderground v.1.15,2013-05-03 04:42:00,
2013-05-03 00:48:00,66.1,63.1,30.01,NE,47,14.0,20.0,90,0.00,,,0.00,Wunderground v.1.15,2013-05-03 04:48:00,
2013-05-03 00:54:00,66.0,62.7,30.01,ENE,72,14.0,17.0,89,0.00,,,0.00,Wunderground v.1.15,2013-05-03 04:54:00,
2013-05-03 01:00:00,65.8,62.5,30.00,East,83,16.0,19.0,89,0.00,,,0.00,Wunderground v.1.15,2013-05-03 05:00:00,
2013-05-03 01:06:00,65.8,62.1,30.00,NE,47,16.0,26.0,88,0.00,,,0.00,Wunderground v.1.15,2013-05-03 05:06:00,
2013-05-03 01:12:00,65.0,61.7,30.00,East,86,17.0,17.0,89,0.00,,,0.00,Wunderground v.1.15,2013-05-03 05:12:00,
2013-05-03 01:18:00,64.2,61.8,30.01,East,100,17.0,17.0,92,0.00,,,0.00,Wunderground v.1.15,2013-05-03 05:18:00,
2013-05-03 01:24:00,63.7,62.5,30.01,ENE,59,14.0,17.0,96,0.00,,,0.00,Wunderground v.1.15,2013-05-03 05:24:00,
2013-05-03 01:30:00,63.7,62.8,30.00,NE,54,13.0,13.0,97,0.00,,,0.00,Wunderground v.1.15,2013-05-03 05:30:00,
2013-05-03 01:36:00,63.4,63.1,30.00,ENE,73,14.0,22.0,99,0.00,,,0.00,Wunderground v.1.15,2013-05-03 05:36:00,
2013-05-03 01:42:00,63.2,63.2,30.00,East,79,14.0,24.0,100,0.00,,,0.00,Wunderground v.1.15,2013-05-03 05:42:00,
2013-05-03 01:48:00,62.9,62.9,30.00,ENE,78,12.0,24.0,100,0.00,,,0.00,Wunderground v.1.15,2013-05-03 05:48:00,
2013-05-03 01:54:00,62.9,62.9,30.00,ENE,62,10.0,13.0,100,0.00,,,0.00,Wunderground v.1.15,2013-05-03 05:54:00,
2013-05-03 02:00:00,62.9,62.9,29.99,ENE,59,9.0,14.0,100,0.00,,,0.00,Wunderground v.1.15,2013-05-03 06:00:00,
2013-05-03 02:06:00,62.9,62.9,29.99,NE,45,8.0,14.0,100,0.00,,,0.00,Wunderground v.1.15,2013-05-03 06:06:00,
2013-05-03 02:12:00,62.7,62.7,29.99,NE,38,8.0,8.0,100,0.00,,,0.00,Wunderground v.1.15,2013-05-03 06:12:00,
2013-05-03 02:18:00,62.7,62.7,29.99,NE,40,9.0,18.0,100,0.00,,,0.00,Wunderground v.1.15,2013-05-03 06:18:00,
2013-05-03 02:24:00,62.7,62.7,29.99,ENE,61,9.0,11.0,100,0.00,,,0.00,Wunderground v.1.15,2013-05-03 06:24:00,
2013-05-03 02:30:00,62.6,62.6,29.98,NE,41,7.0,8.0,100,0.00,,,0.00,Wunderground v.1.15,2013-05-03 06:30:00,
2013-05-03 02:36:00,62.4,62.4,29.98,NNE,27,9.0,9.0,100,0.00,,,0.01,Wunderground v.1.15,2013-05-03 06:36:00,
2013-05-03 02:42:00,62.1,62.1,29.98,NE,38,9.0,9.0,100,0.00,,,0.01,Wunderground v.1.15,2013-05-03 06:42:00,
2013-05-03 02:48:00,62.1,62.1,29.98,ENE,58,8.0,13.0,100,0.00,,,0.01,Wunderground v.1.15,2013-05-03 06:48:00,
2013-05-03 02:54:00,62.3,62.3,29.98,North,8,8.0,8.0,100,0.00,,,0.01,Wunderground v.1.15,2013-05-03 06:54:00,
2013-05-03 03:00:00,62.6,62.6,29.97,ENE,62,9.0,9.0,100,0.00,,,0.01,Wunderground v.1.15,2013-05-03 07:00:00,
2013-05-03 03:06:00,62.7,62.7,29.97,NE,45,10.0,14.0,100,0.00,,,0.01,Wunderground v.1.15,2013-05-03 07:06:00,
2013-05-03 03:12:00,62.6,62.6,29.97,NE,41,9.0,10.0,100,0.00,,,0.02,Wunderground v.1.15,2013-05-03 07:12:00,
2013-05-03 03:18:00,62.4,62.4,29.97,ENE,65,7.0,13.0,100,0.13,,,0.03,Wunderground v.1.15,2013-05-03 07:18:00,
2013-05-03 03:24:00,62.3,62.3,29.97,East,99,7.0,16.0,100,0.11,,,0.04,Wunderground v.1.15,2013-05-03 07:24:00,
2013-05-03 03:30:00,62.3,62.3,29.97,NE,52,9.0,9.0,100,0.19,,,0.06,Wunderground v.1.15,2013-05-03 07:30:00,
2013-05-03 03:36:00,62.4,62.4,29.97,NE,55,8.0,12.0,100,0.16,,,0.08,Wunderground v.1.15,2013-05-03 07:36:00,
2013-05-03 03:42:00,62.3,62.3,29.97,NE,49,5.0,7.0,100,0.12,,,0.08,Wunderground v.1.15,2013-05-03 07:42:00,
2013-05-03 03:48:00,62.4,62.4,29.96,NE,42,5.0,9.0,100,0.08,,,0.08,Wunderground v.1.15,2013-05-03 07:48:00,
2013-05-03 03:54:00,62.6,62.6,29.96,NE,35,7.0,10.0,100,0.04,,,0.08,Wunderground v.1.15,2013-05-03 07:54:00,
2013-05-03 04:00:00,62.0,62.0,29.95,NNE,30,10.0,14.0,100,0.00,,,0.08,Wunderground v.1.15,2013-05-03 08:00:00,
2013-05-03 04:06:00,62.0,62.0,29.95,North,0,10.0,14.0,100,0.00,,,0.08,Wunderground v.1.15,2013-05-03 08:06:00,
2013-05-03 04:12:00,62.0,62.0,29.95,NNE,21,8.0,11.0,100,0.00,,,0.08,Wunderground v.1.15,2013-05-03 08:12:00,
2013-05-03 04:18:00,62.0,62.0,29.95,North,7,8.0,12.0,100,0.00,,,0.08,Wunderground v.1.15,2013-05-03 08:18:00,
2013-05-03 04:24:00,62.0,62.0,29.95,North,0,8.0,8.0,100,0.00,,,0.08,Wunderground v.1.15,2013-05-03 08:24:00,
2013-05-03 04:30:00,61.6,61.6,29.95,NNE,18,8.0,8.0,100,0.00,,,0.08,Wunderground v.1.15,2013-05-03 08:30:00,
2013-05-03 04:36:00,61.6,61.6,29.95,NNE,31,8.0,8.0,100,0.00,,,0.08,Wunderground v.1.15,2013-05-03 08:36:00,
2013-05-03 04:42:00,61.6,61.6,29.95,NE,48,8.0,8.0,100,0.00,,,0.08,Wunderground v.1.15,2013-05-03 08:42:00,
2013-05-03 04:48:00,61.6,61.6,29.95,NE,54,7.0,8.0,100,0.00,,,0.08,Wunderground v.1.15,2013-05-03 08:48:00,
2013-05-03 04:54:00,61.6,61.6,29.95,North,1,7.0,12.0,100,0.00,,,0.08,Wunderground v.1.15,2013-05-03 08:54:00,
2013-05-03 05:00:00,61.8,61.8,29.95,NE,40,6.0,7.0,100,0.00,,,0.08,Wunderground v.1.15,2013-05-03 09:00:00,
2013-05-03 05:06:00,62.0,62.0,29.95,NE,44,5.0,11.0,100,0.00,,,0.08,Wunderground v.1.15,2013-05-03 09:06:00,
2013-05-03 05:12:00,62.0,62.0,29.95,ENE,61,7.0,11.0,100,0.00,,,0.08,Wunderground v.1.15,2013-05-03 09:12:00,
2013-05-03 05:18:00,62.0,62.0,29.95,NE,44,7.0,11.0,100,0.00,,,0.08,Wunderground v.1.15,2013-05-03 09:18:00,
2013-05-03 05:24:00,62.0,62.0,29.95,NNE,31,7.0,13.0,100,0.00,,,0.08,Wunderground v.1.15,2013-05-03 09:24:00,
2013-05-03 05:30:00,62.0,62.0,29.95,NE,55,7.0,7.0,100,0.00,,,0.08,Wunderground v.1.15,2013-05-03 09:30:00,
2013-05-03 05:36:00,62.0,62.0,29.95,North,6,6.0,7.0,100,0.00,,,0.08,Wunderground v.1.15,2013-05-03 09:36:00,
2013-05-03 05:42:00,62.1,62.1,29.95,NNE,31,7.0,12.0,100,0.00,,,0.08,Wunderground v.1.15,2013-05-03 09:42:00,
2013-05-03 05:48:00,62.1,62.1,29.95,ENE,64,7.0,13.0,100,0.00,,,0.08,Wunderground v.1.15,2013-05-03 09:48:00,
2013-05-03 05:54:00,62.1,62.1,29.95,NE,52,7.0,14.0,100,0.00,,,0.08,Wunderground v.1.15,2013-05-03 09:54:00,
2013-05-03 06:00:00,62.1,62.1,29.95,ENE,64,7.0,7.0,100,0.00,,,0.08,Wunderground v.1.15,2013-05-03 10:00:00,
2013-05-03 06:06:00,62.1,62.1,29.95,East,88,6.0,9.0,100,0.00,,,0.08,Wunderground v.1.15,2013-05-03 10:06:00,
2013-05-03 06:12:00,62.1,62.1,29.95,NNE,31,6.0,6.0,100,0.00,,,0.08,Wunderground v.1.15,2013-05-03 10:12:00,
2013-05-03 06:18:00,62.0,62.0,29.96,NNE,31,5.0,9.0,100,0.00,,,0.08,Wunderground v.1.15,2013-05-03 10:18:00,
2013-05-03 06:24:00,62.0,62.0,29.96,NNE,17,6.0,9.0,100,0.00,,,0.08,Wunderground v.1.15,2013-05-03 10:24:00,
2013-05-03 06:30:00,62.0,62.0,29.96,NNE,28,7.0,7.0,100,0.00,,,0.08,Wunderground v.1.15,2013-05-03 10:30:00,
2013-05-03 06:36:00,62.1,62.1,29.96,NNE,28,6.0,10.0,100,0.00,,,0.08,Wunderground v.1.15,2013-05-03 10:36:00,
2013-05-03 06:42:00,62.1,62.1,29.96,NNE,23,6.0,11.0,100,0.00,,,0.08,Wunderground v.1.15,2013-05-03 10:42:00,
2013-05-03 06:48:00,62.3,62.3,29.96,NE,54,6.0,13.0,100,0.00,,,0.08,Wunderground v.1.15,2013-05-03 10:48:00,
2013-05-03 06:54:00,62.3,62.3,29.96,NNE,27,6.0,7.0,100,0.00,,,0.08,Wunderground v.1.15,2013-05-03 10:54:00,
2013-05-03 07:00:00,62.4,62.4,29.97,NNE,23,5.0,5.0,100,0.00,,,0.08,Wunderground v.1.15,2013-05-03 11:00:00,
2013-05-03 07:06:00,62.3,62.3,29.97,NNE,28,6.0,8.0,100,0.00,,,0.08,Wunderground v.1.15,2013-05-03 11:06:00,
2013-05-03 07:12:00,62.4,62.4,29.97,NNE,30,6.0,6.0,100,0.00,,,0.08,Wunderground v.1.15,2013-05-03 11:12:00,
2013-05-03 07:18:00,62.4,62.4,29.97,NE,42,6.0,10.0,100,0.00,,,0.08,Wunderground v.1.15,2013-05-03 11:18:00,
2013-05-03 07:24:00,62.4,62.4,29.97,NE,42,6.0,8.0,100,0.00,,,0.08,Wunderground v.1.15,2013-05-03 11:24:00,
2013-05-03 07:30:00,62.3,62.3,29.97,NNE,14,6.0,7.0,100,0.00,,,0.08,Wunderground v.1.15,2013-05-03 11:30:00,
2013-05-03 07:36:00,62.4,62.4,29.97,ENE,65,6.0,12.0,100,0.00,,,0.08,Wunderground v.1.15,2013-05-03 11:36:00,
2013-05-03 07:42:00,62.4,62.4,29.97,NE,45,6.0,6.0,100,0.00,,,0.08,Wunderground v.1.15,2013-05-03 11:42:00,
2013-05-03 07:48:00,62.6,62.6,29.97,NE,44,7.0,12.0,100,0.00,,,0.08,Wunderground v.1.15,2013-05-03 11:48:00,
2013-05-03 07:54:00,62.7,62.7,29.97,NE,49,6.0,11.0,100,0.00,,,0.08,Wunderground v.1.15,2013-05-03 11:54:00,
2013-05-03 08:00:00,62.6,62.6,29.97,ENE,64,6.0,11.0,100,0.00,,,0.08,Wunderground v.1.15,2013-05-03 12:00:00,
2013-05-03 08:06:00,62.7,62.7,29.97,ENE,59,5.0,11.0,100,0.00,,,0.08,Wunderground v.1.15,2013-05-03 12:06:00,
2013-05-03 08:12:00,62.9,62.9,29.97,NE,51,6.0,11.0,100,0.00,,,0.08,Wunderground v.1.15,2013-05-03 12:12:00,
2013-05-03 08:18:00,62.9,62.9,29.98,ESE,110,6.0,11.0,100,0.00,,,0.08,Wunderground v.1.15,2013-05-03 12:18:00,
2013-05-03 08:24:00,63.2,63.2,29.98,ENE,66,6.0,13.0,100,0.00,,,0.08,Wunderground v.1.15,2013-05-03 12:24:00,
2013-05-03 08:30:00,63.4,63.4,29.97,NE,42,8.0,8.0,100,0.00,,,0.08,Wunderground v.1.15,2013-05-03 12:30:00,
2013-05-03 08:36:00,63.2,63.2,29.97,NE,37,9.0,10.0,100,0.00,,,0.08,Wunderground v.1.15,2013-05-03 12:36:00,
2013-05-03 08:42:00,63.5,63.5,29.97,ENE,78,9.0,12.0,100,0.00,,,0.08,Wunderground v.1.15,2013-05-03 12:42:00,
2013-05-03 08:48:00,63.5,63.5,29.98,ENE,72,9.0,14.0,100,0.00,,,0.08,Wunderground v.1.15,2013-05-03 12:48:00,
2013-05-03 08:54:00,63.7,63.7,29.98,NE,54,10.0,18.0,100,0.00,,,0.08,Wunderground v.1.15,2013-05-03 12:54:00,
2013-05-03 09:00:00,64.0,64.0,29.98,NE,52,8.0,10.0,100,0.00,,,0.08,Wunderground v.1.15,2013-05-03 13:00:00,
2013-05-03 09:06:00,64.2,64.2,29.98,ENE,65,9.0,13.0,100,0.00,,,0.08,Wunderground v.1.15,2013-05-03 13:06:00,
2013-05-03 09:12:00,64.3,64.3,29.98,East,86,12.0,12.0,100,0.00,,,0.08,Wunderground v.1.15,2013-05-03 13:12:00,
2013-05-03 09:18:00,64.5,64.5,29.98,ENE,72,13.0,16.0,100,0.00,,,0.08,Wunderground v.1.15,2013-05-03 13:18:00,
2013-05-03 09:24:00,64.8,64.8,29.98,ENE,69,11.0,14.0,100,0.00,,,0.08,Wunderground v.1.15,2013-05-03 13:24:00,
2013-05-03 09:30:00,65.0,65.0,29.97,East,86,12.0,16.0,100,0.00,,,0.08,Wunderground v.1.15,2013-05-03 13:30:00,
2013-05-03 09:36:00,65.0,65.0,29.97,ENE,69,14.0,21.0,100,0.00,,,0.08,Wunderground v.1.15,2013-05-03 13:36:00,
2013-05-03 09:42:00,64.8,64.8,29.97,ENE,75,14.0,16.0,100,0.00,,,0.08,Wunderground v.1.15,2013-05-03 13:42:00,
2013-05-03 09:48:00,64.7,64.7,29.97,ENE,75,15.0,16.0,100,0.00,,,0.08,Wunderground v.1.15,2013-05-03 13:48:00,
2013-05-03 09:54:00,64.8,64.8,29.97,ENE,62,13.0,14.0,100,0.00,,,0.08,Wunderground v.1.15,2013-05-03 13:54:00,
2013-05-03 10:00:00,65.0,65.0,29.97,East,86,14.0,18.0,100,0.00,,,0.08,Wunderground v.1.15,2013-05-03 14:00:00,
2013-05-03 10:06:00,65.0,64.7,29.97,ENE,58,15.0,18.0,99,0.00,,,0.08,Wunderground v.1.15,2013-05-03 14:06:00,
2013-05-03 10:12:00,65.2,64.9,29.97,ENE,73,15.0,20.0,99,0.00,,,0.08,Wunderground v.1.15,2013-05-03 14:12:00,
2013-05-03 10:18:00,65.2,64.9,29.97,ENE,58,15.0,22.0,99,0.00,,,0.08,Wunderground v.1.15,2013-05-03 14:18:00,
2013-05-03 10:24:00,65.2,64.9,29.97,NE,42,16.0,20.0,99,0.00,,,0.08,Wunderground v.1.15,2013-05-03 14:24:00,
2013-05-03 10:30:00,65.3,64.7,29.98,ENE,78,17.0,17.0,98,0.00,,,0.08,Wunderground v.1.15,2013-05-03 14:30:00,
2013-05-03 10:36:00,65.3,64.7,29.98,East,88,17.0,17.0,98,0.00,,,0.08,Wunderground v.1.15,2013-05-03 14:36:00,
2013-05-03 10:42:00,65.5,64.9,29.98,NE,45,16.0,16.0,98,0.00,,,0.08,Wunderground v.1.15,2013-05-03 14:42:00,
2013-05-03 10:48:00,65.5,64.9,29.97,East,86,15.0,18.0,98,0.00,,,0.08,Wunderground v.1.15,2013-05-03 14:48:00,
2013-05-03 10:54:00,65.6,65.0,29.97,NE,48,15.0,20.0,98,0.00,,,0.08,Wunderground v.1.15,2013-05-03 14:54:00,
2013-05-03 11:00:00,65.6,65.0,29.97,ENE,78,14.0,19.0,98,0.00,,,0.08,Wunderground v.1.15,2013-05-03 15:00:00,
2013-05-03 11:06:00,65.5,64.9,29.97,ENE,72,16.0,21.0,98,0.00,,,0.08,Wunderground v.1.15,2013-05-03 15:06:00,
2013-05-03 11:12:00,65.6,65.0,29.97,ENE,59,16.0,20.0,98,0.00,,,0.08,Wunderground v.1.15,2013-05-03 15:12:00,
2013-05-03 11:18:00,66.0,65.4,29.98,East,86,16.0,20.0,98,0.00,,,0.08,Wunderground v.1.15,2013-05-03 15:18:00,
2013-05-03 11:24:00,66.3,65.4,29.98,ENE,76,15.0,21.0,97,0.00,,,0.08,Wunderground v.1.15,2013-05-03 15:24:00,
2013-05-03 11:30:00,66.4,65.5,29.98,ESE,107,15.0,15.0,97,0.00,,,0.08,Wunderground v.1.15,2013-05-03 15:30:00,
2013-05-03 11:36:00,66.4,65.2,29.98,NE,45,17.0,21.0,96,0.00,,,0.08,Wunderground v.1.15,2013-05-03 15:36:00,
2013-05-03 11:42:00,66.6,65.4,29.98,ENE,62,19.0,19.0,96,0.00,,,0.08,Wunderground v.1.15,2013-05-03 15:42:00,
2013-05-03 11:48:00,66.6,65.1,29.97,ENE,59,19.0,22.0,95,0.00,,,0.08,Wunderground v.1.15,2013-05-03 15:48:00,
2013-05-03 11:54:00,66.8,65.3,29.97,ENE,65,18.0,20.0,95,0.00,,,0.08,Wunderground v.1.15,2013-05-03 15:54:00,
2013-05-03 12:00:00,66.9,65.1,29.98,ENE,71,16.0,24.0,94,0.00,,,0.08,Wunderground v.1.15,2013-05-03 16:00:00,
2013-05-03 12:06:00,67.3,65.5,29.98,East,83,15.0,24.0,94,0.00,,,0.08,Wunderground v.1.15,2013-05-03 16:06:00,
2013-05-03 12:12:00,66.9,64.8,29.98,NNE,21,17.0,17.0,93,0.00,,,0.08,Wunderground v.1.15,2013-05-03 16:12:00,
2013-05-03 12:18:00,66.6,65.1,29.97,NE,52,18.0,21.0,95,0.00,,,0.08,Wunderground v.1.15,2013-05-03 16:18:00,
2013-05-03 12:24:00,66.4,64.6,29.97,ENE,76,19.0,26.0,94,0.00,,,0.08,Wunderground v.1.15,2013-05-03 16:24:00,
2013-05-03 12:30:00,66.3,64.8,29.97,ENE,62,19.0,19.0,95,0.00,,,0.08,Wunderground v.1.15,2013-05-03 16:30:00,
2013-05-03 12:36:00,66.1,64.9,29.97,East,90,18.0,25.0,96,0.00,,,0.08,Wunderground v.1.15,2013-05-03 16:36:00,
2013-05-03 12:42:00,66.3,65.1,29.97,ENE,73,17.0,19.0,96,0.00,,,0.08,Wunderground v.1.15,2013-05-03 16:42:00,
2013-05-03 12:48:00,66.3,65.1,29.97,ENE,64,17.0,25.0,96,0.00,,,0.08,Wunderground v.1.15,2013-05-03 16:48:00,
2013-05-03 12:54:00,66.4,65.2,29.97,ENE,59,16.0,17.0,96,0.00,,,0.08,Wunderground v.1.15,2013-05-03 16:54:00,
2013-05-03 13:00:00,66.3,65.1,29.97,NE,47,16.0,22.0,96,0.00,,,0.08,Wunderground v.1.15,2013-05-03 17:00:00,
2013-05-03 13:06:00,66.0,64.8,29.97,NE,47,19.0,25.0,96,0.00,,,0.08,Wunderground v.1.15,2013-05-03 17:06:00,
2013-05-03 13:12:00,65.8,64.6,29.97,ENE,76,20.0,20.0,96,0.00,,,0.08,Wunderground v.1.15,2013-05-03 17:12:00,
2013-05-03 13:18:00,65.8,64.6,29.97,East,82,18.0,20.0,96,0.00,,,0.08,Wunderground v.1.15,2013-05-03 17:18:00,
2013-05-03 13:24:00,65.8,64.6,29.97,NE,55,17.0,19.0,96,0.00,,,0.08,Wunderground v.1.15,2013-05-03 17:24:00,
2013-05-03 13:30:00,66.1,64.6,29.96,East,82,15.0,24.0,95,0.00,,,0.08,Wunderground v.1.15,2013-05-03 17:30:00,
2013-05-03 13:36:00,66.3,65.1,29.96,ENE,75,15.0,24.0,96,0.00,,,0.08,Wunderground v.1.15,2013-05-03 17:36:00,
2013-05-03 13:42:00,66.3,65.1,29.96,NE,49,13.0,14.0,96,0.00,,,0.08,Wunderground v.1.15,2013-05-03 17:42:00,
2013-05-03 13:48:00,66.6,65.1,29.96,ENE,69,13.0,15.0,95,0.00,,,0.08,Wunderground v.1.15,2013-05-03 17:48:00,
2013-05-03 13:54:00,66.4,65.2,29.96,NE,48,14.0,14.0,96,0.00,,,0.08,Wunderground v.1.15,2013-05-03 17:54:00,
2013-05-03 14:00:00,66.8,65.6,29.96,NE,51,15.0,15.0,96,0.00,,,0.08,Wunderground v.1.15,2013-05-03 18:00:00,
2013-05-03 14:06:00,66.9,65.1,29.96,ENE,76,14.0,21.0,94,0.00,,,0.08,Wunderground v.1.15,2013-05-03 18:06:00,
2013-05-03 14:12:00,66.9,65.4,29.96,ENE,61,17.0,22.0,95,0.00,,,0.08,Wunderground v.1.15,2013-05-03 18:12:00,
2013-05-03 14:18:00,66.6,64.8,29.96,East,79,16.0,22.0,94,0.00,,,0.08,Wunderground v.1.15,2013-05-03 18:18:00,
2013-05-03 14:24:00,66.6,64.8,29.96,ENE,73,16.0,16.0,94,0.00,,,0.08,Wunderground v.1.15,2013-05-03 18:24:00,
2013-05-03 14:30:00,66.4,64.9,29.96,NE,45,15.0,22.0,95,0.00,,,0.08,Wunderground v.1.15,2013-05-03 18:30:00,
2013-05-03 14:36:00,66.6,65.1,29.96,NE,48,17.0,22.0,95,0.00,,,0.08,Wunderground v.1.15,2013-05-03 18:36:00,
2013-05-03 14:42:00,66.6,65.1,29.96,NE,55,18.0,18.0,95,0.00,,,0.08,Wunderground v.1.15,2013-05-03 18:42:00,
2013-05-03 14:48:00,66.6,65.4,29.95,NE,42,19.0,20.0,96,0.00,,,0.08,Wunderground v.1.15,2013-05-03 18:48:00,
2013-05-03 14:54:00,66.6,65.1,29.95,ENE,59,20.0,32.0,95,0.00,,,0.08,Wunderground v.1.15,2013-05-03 18:54:00,
2013-05-03 15:00:00,66.4,64.9,29.95,NNE,23,21.0,21.0,95,0.00,,,0.08,Wunderground v.1.15,2013-05-03 19:00:00,
2013-05-03 15:06:00,66.6,64.8,29.95,East,79,21.0,29.0,94,0.00,,,0.08,Wunderground v.1.15,2013-05-03 19:06:00,
2013-05-03 15:12:00,66.4,64.6,29.95,ENE,61,20.0,27.0,94,0.00,,,0.08,Wunderground v.1.15,2013-05-03 19:12:00,
2013-05-03 15:18:00,66.6,65.1,29.94,ENE,64,19.0,27.0,95,0.00,,,0.08,Wunderground v.1.15,2013-05-03 19:18:00,
2013-05-03 15:24:00,66.8,65.3,29.94,NE,56,19.0,24.0,95,0.00,,,0.08,Wunderground v.1.15,2013-05-03 19:24:00,
2013-05-03 15:30:00,66.6,65.1,29.94,NNE,21,19.0,19.0,95,0.00,,,0.08,Wunderground v.1.15,2013-05-03 19:30:00,
2013-05-03 15:36:00,66.4,64.9,29.94,ENE,69,21.0,31.0,95,0.00,,,0.08,Wunderground v.1.15,2013-05-03 19:36:00,
2013-05-03 15:42:00,66.4,65.2,29.94,NE,51,21.0,29.0,96,0.00,,,0.08,Wunderground v.1.15,2013-05-03 19:42:00,
2013-05-03 15:48:00,66.4,65.2,29.94,NE,51,20.0,29.0,96,0.00,,,0.08,Wunderground v.1.15,2013-05-03 19:48:00,
2013-05-03 15:54:00,66.3,64.8,29.94,East,85,19.0,20.0,95,0.00,,,0.08,Wunderground v.1.15,2013-05-03 19:54:00,
2013-05-03 16:00:00,66.1,64.6,29.93,NE,51,19.0,20.0,95,0.00,,,0.08,Wunderground v.1.15,2013-05-03 20:00:00,
2013-05-03 16:06:00,66.0,64.5,29.93,ENE,78,18.0,21.0,95,0.00,,,0.08,Wunderground v.1.15,2013-05-03 20:06:00,
2013-05-03 16:12:00,66.0,63.9,29.93,ENE,72,18.0,22.0,93,0.00,,,0.08,Wunderground v.1.15,2013-05-03 20:12:00,
2013-05-03 16:18:00,66.0,63.9,29.93,ENE,61,19.0,22.0,93,0.00,,,0.08,Wunderground v.1.15,2013-05-03 20:18:00,
2013-05-03 16:24:00,66.0,64.2,29.93,NE,44,19.0,28.0,94,0.00,,,0.08,Wunderground v.1.15,2013-05-03 20:24:00,
2013-05-03 16:30:00,65.6,63.8,29.93,NE,56,20.0,20.0,94,0.00,,,0.09,Wunderground v.1.15,2013-05-03 20:30:00,
2013-05-03 16:36:00,65.5,63.7,29.93,ENE,78,20.0,26.0,94,0.00,,,0.09,Wunderground v.1.15,2013-05-03 20:36:00,
2013-05-03 16:42:00,65.3,62.9,29.93,ENE,64,17.0,26.0,92,0.00,,,0.09,Wunderground v.1.15,2013-05-03 20:42:00,
2013-05-03 16:48:00,65.6,62.9,29.93,ENE,65,17.0,26.0,91,0.00,,,0.09,Wunderground v.1.15,2013-05-03 20:48:00,
2013-05-03 16:54:00,65.6,62.9,29.93,ENE,76,15.0,16.0,91,0.00,,,0.09,Wunderground v.1.15,2013-05-03 20:54:00,
2013-05-03 17:00:00,65.6,63.2,29.93,NE,42,18.0,18.0,92,0.00,,,0.09,Wunderground v.1.15,2013-05-03 21:00:00,
2013-05-03 17:06:00,65.5,63.7,29.93,East,80,20.0,22.0,94,0.00,,,0.09,Wunderground v.1.15,2013-05-03 21:06:00,
2013-05-03 17:12:00,65.5,64.0,29.93,ENE,78,19.0,20.0,95,0.00,,,0.09,Wunderground v.1.15,2013-05-03 21:12:00,
2013-05-03 17:18:00,65.5,64.6,29.93,ENE,72,17.0,25.0,97,0.00,,,0.09,Wunderground v.1.15,2013-05-03 21:18:00,
2013-05-03 17:24:00,65.3,64.1,29.93,ENE,64,19.0,22.0,96,0.00,,,0.09,Wunderground v.1.15,2013-05-03 21:24:00,
2013-05-03 17:30:00,65.2,63.1,29.93,East,82,21.0,21.0,93,0.00,,,0.09,Wunderground v.1.15,2013-05-03 21:30:00,
2013-05-03 17:36:00,65.3,62.9,29.93,ENE,71,18.0,21.0,92,0.00,,,0.09,Wunderground v.1.15,2013-05-03 21:36:00,
2013-05-03 17:42:00,65.3,62.3,29.93,ENE,62,19.0,21.0,90,0.00,,,0.09,Wunderground v.1.15,2013-05-03 21:42:00,
2013-05-03 17:48:00,65.5,62.5,29.93,East,82,17.0,21.0,90,0.00,,,0.09,Wunderground v.1.15,2013-05-03 21:48:00,
2013-05-03 17:54:00,65.5,62.8,29.93,ENE,68,17.0,25.0,91,0.00,,,0.09,Wunderground v.1.15,2013-05-03 21:54:00,
2013-05-03 18:00:00,65.5,63.7,29.93,ENE,61,19.0,25.0,94,0.00,,,0.09,Wunderground v.1.15,2013-05-03 22:00:00,
2013-05-03 18:06:00,65.5,63.7,29.93,East,97,20.0,25.0,94,0.00,,,0.09,Wunderground v.1.15,2013-05-03 22:06:00,
2013-05-03 18:12:00,65.2,62.8,29.93,ENE,78,21.0,33.0,92,0.00,,,0.09,Wunderground v.1.15,2013-05-03 22:12:00,
2013-05-03 18:18:00,65.3,62.6,29.93,East,97,23.0,33.0,91,0.00,,,0.09,Wunderground v.1.15,2013-05-03 22:18:00,
2013-05-03 18:24:00,65.5,62.8,29.93,ENE,75,21.0,32.0,91,0.00,,,0.09,Wunderground v.1.15,2013-05-03 22:24:00,
2013-05-03 18:30:00,65.3,62.3,29.93,East,88,20.0,22.0,90,0.00,,,0.09,Wunderground v.1.15,2013-05-03 22:30:00,
2013-05-03 18:36:00,65.3,62.3,29.93,East,83,21.0,29.0,90,0.00,,,0.09,Wunderground v.1.15,2013-05-03 22:36:00,
2013-05-03 18:42:00,65.3,62.0,29.93,ENE,68,20.0,26.0,89,0.00,,,0.09,Wunderground v.1.15,2013-05-03 22:42:00,
2013-05-03 18:48:00,65.0,62.3,29.93,ENE,65,18.0,26.0,91,0.00,,,0.09,Wunderground v.1.15,2013-05-03 22:48:00,
2013-05-03 18:54:00,64.8,60.8,29.93,NE,38,18.0,28.0,87,0.00,,,0.09,Wunderground v.1.15,2013-05-03 22:54:00,
2013-05-03 19:00:00,64.7,60.7,29.93,NE,38,19.0,19.0,87,0.00,,,0.09,Wunderground v.1.15,2013-05-03 23:00:00,
2013-05-03 19:06:00,64.8,60.5,29.93,ENE,58,16.0,27.0,86,0.00,,,0.09,Wunderground v.1.15,2013-05-03 23:06:00,
2013-05-03 19:12:00,65.2,59.9,29.93,ENE,73,17.0,24.0,83,0.00,,,0.09,Wunderground v.1.15,2013-05-03 23:12:00,
2013-05-03 19:18:00,65.3,60.3,29.93,ENE,72,20.0,26.0,84,0.00,,,0.09,Wunderground v.1.15,2013-05-03 23:18:00,
2013-05-03 19:24:00,65.0,60.4,29.93,ENE,71,23.0,28.0,85,0.00,,,0.09,Wunderground v.1.15,2013-05-03 23:24:00,
2013-05-03 19:30:00,64.8,61.2,29.93,East,80,23.0,23.0,88,0.00,,,0.09,Wunderground v.1.15,2013-05-03 23:30:00,
2013-05-03 19:36:00,64.5,62.1,29.93,SE,128,21.0,23.0,92,0.00,,,0.09,Wunderground v.1.15,2013-05-03 23:36:00,
2013-05-03 19:42:00,63.9,61.2,29.93,ENE,62,20.0,20.0,91,0.00,,,0.09,Wunderground v.1.15,2013-05-03 23:42:00,
2013-05-03 19:48:00,63.7,61.0,29.94,ENE,68,20.0,24.0,91,0.00,,,0.09,Wunderground v.1.15,2013-05-03 23:48:00,
2013-05-03 19:54:00,63.7,61.0,29.94,ESE,107,19.0,21.0,91,0.00,,,0.09,Wunderground v.1.15,2013-05-03 23:54:00,
2013-05-03 20:00:00,63.7,60.1,29.94,ENE,66,19.0,22.0,88,0.00,,,0.09,Wunderground v.1.15,2013-05-04 00:00:00,
2013-05-03 20:06:00,63.9,60.3,29.94,ENE,73,20.0,24.0,88,0.00,,,0.09,Wunderground v.1.15,2013-05-04 00:06:00,
2013-05-03 20:12:00,64.2,60.2,29.94,ENE,62,19.0,21.0,87,0.00,,,0.09,Wunderground v.1.15,2013-05-04 00:12:00,
2013-05-03 20:18:00,63.4,60.1,29.94,ENE,68,21.0,26.0,89,0.00,,,0.09,Wunderground v.1.15,2013-05-04 00:18:00,
2013-05-03 20:24:00,62.9,60.8,29.94,NE,38,21.0,21.0,93,0.00,,,0.09,Wunderground v.1.15,2013-05-04 00:24:00,
2013-05-03 20:30:00,62.6,60.2,29.94,ENE,66,20.0,20.0,92,0.00,,,0.09,Wunderground v.1.15,2013-05-04 00:30:00,
2013-05-03 20:36:00,62.7,59.4,29.94,ENE,69,21.0,30.0,89,0.00,,,0.09,Wunderground v.1.15,2013-05-04 00:36:00,
2013-05-03 20:42:00,63.1,59.8,29.94,NE,37,20.0,25.0,89,0.00,,,0.09,Wunderground v.1.15,2013-05-04 00:42:00,
2013-05-03 20:48:00,63.4,58.5,29.94,ENE,73,18.0,25.0,84,0.00,,,0.09,Wunderground v.1.15,2013-05-04 00:48:00,
2013-05-03 20:54:00,63.2,57.9,29.94,ENE,78,21.0,29.0,83,0.00,,,0.09,Wunderground v.1.15,2013-05-04 00:54:00,
2013-05-03 21:00:00,63.4,59.1,29.94,ENE,68,20.0,20.0,86,0.00,,,0.09,Wunderground v.1.15,2013-05-04 01:00:00,
2013-05-03 21:06:00,63.4,59.5,29.94,ENE,65,17.0,27.0,87,0.00,,,0.09,Wunderground v.1.15,2013-05-04 01:06:00,
2013-05-03 21:12:00,63.2,59.6,29.94,ENE,68,18.0,18.0,88,0.00,,,0.09,Wunderground v.1.15,2013-05-04 01:12:00,
2013-05-03 21:18:00,63.1,59.5,29.94,ENE,59,18.0,24.0,88,0.00,,,0.09,Wunderground v.1.15,2013-05-04 01:18:00,
2013-05-03 21:24:00,62.9,59.6,29.94,ENE,76,18.0,21.0,89,0.00,,,0.09,Wunderground v.1.15,2013-05-04 01:24:00,
2013-05-03 21:30:00,62.7,59.1,29.94,ENE,71,17.0,20.0,88,0.00,,,0.09,Wunderground v.1.15,2013-05-04 01:30:00,
2013-05-03 21:36:00,62.9,58.6,29.94,ENE,68,16.0,20.0,86,0.00,,,0.09,Wunderground v.1.15,2013-05-04 01:36:00,
2013-05-03 21:42:00,63.1,58.8,29.94,ENE,65,16.0,20.0,86,0.00,,,0.09,Wunderground v.1.15,2013-05-04 01:42:00,
2013-05-03 21:48:00,63.2,58.9,29.94,NE,54,15.0,22.0,86,0.00,,,0.09,Wunderground v.1.15,2013-05-04 01:48:00,
2013-05-03 21:54:00,63.4,59.1,29.94,ENE,59,16.0,16.0,86,0.00,,,0.09,Wunderground v.1.15,2013-05-04 01:54:00,
2013-05-03 22:00:00,63.2,58.9,29.94,East,97,17.0,17.0,86,0.00,,,0.09,Wunderground v.1.15,2013-05-04 02:00:00,
2013-05-03 22:06:00,63.2,58.6,29.94,East,80,17.0,24.0,85,0.00,,,0.09,Wunderground v.1.15,2013-05-04 02:06:00,
2013-05-03 22:12:00,63.2,58.6,29.94,ENE,76,16.0,20.0,85,0.00,,,0.09,Wunderground v.1.15,2013-05-04 02:12:00,
2013-05-03 22:18:00,63.2,57.6,29.94,East,99,17.0,24.0,82,0.00,,,0.09,Wunderground v.1.15,2013-05-04 02:18:00,
2013-05-03 22:24:00,63.2,57.6,29.94,ENE,58,17.0,18.0,82,0.00,,,0.09,Wunderground v.1.15,2013-05-04 02:24:00,
2013-05-03 22:30:00,63.1,57.2,29.94,ENE,69,16.0,16.0,81,0.00,,,0.09,Wunderground v.1.15,2013-05-04 02:30:00,
2013-05-03 22:36:00,63.1,56.8,29.94,East,82,17.0,20.0,80,0.00,,,0.09,Wunderground v.1.15,2013-05-04 02:36:00,
2013-05-03 22:42:00,62.9,57.7,29.94,ENE,65,17.0,18.0,83,0.00,,,0.09,Wunderground v.1.15,2013-05-04 02:42:00,
2013-05-03 22:48:00,62.9,58.0,29.94,ENE,72,17.0,24.0,84,0.00,,,0.09,Wunderground v.1.15,2013-05-04 02:48:00,
2013-05-03 22:54:00,62.7,57.8,29.94,East,97,17.0,17.0,84,0.00,,,0.09,Wunderground v.1.15,2013-05-04 02:54:00,
2013-05-03 23:00:00,62.7,58.1,29.93,NE,55,16.0,16.0,85,0.00,,,0.00,Wunderground v.1.15,2013-05-04 03:00:00,
2013-05-03 23:06:00,62.7,58.5,29.93,NE,55,15.0,22.0,86,0.00,,,0.00,Wunderground v.1.15,2013-05-04 03:06:00,
2013-05-03 23:12:00,62.6,58.7,29.93,NE,38,16.0,16.0,87,0.00,,,0.00,Wunderground v.1.15,2013-05-04 03:12:00,
2013-05-03 23:18:00,62.6,58.7,29.93,ENE,69,16.0,21.0,87,0.00,,,0.00,Wunderground v.1.15,2013-05-04 03:18:00,
2013-05-03 23:24:00,62.4,58.5,29.93,ENE,61,16.0,20.0,87,0.00,,,0.00,Wunderground v.1.15,2013-05-04 03:24:00,
2013-05-03 23:30:00,62.4,58.8,29.92,ENE,68,17.0,17.0,88,0.00,,,0.00,Wunderground v.1.15,2013-05-04 03:30:00,
2013-05-03 23:36:00,62.4,59.4,29.92,ENE,75,16.0,20.0,90,0.00,,,0.00,Wunderground v.1.15,2013-05-04 03:36:00,
2013-05-03 23:42:00,62.4,59.1,29.92,East,86,16.0,20.0,89,0.00,,,0.00,Wunderground v.1.15,2013-05-04 03:42:00,
2013-05-03 23:48:00,62.4,59.7,29.92,East,82,17.0,24.0,91,0.00,,,0.00,Wunderground v.1.15,2013-05-04 03:48:00,
2013-05-03 23:54:00,62.4,59.7,29.92,ENE,73,17.0,21.0,91,0.00,,,0.00,Wunderground v.1.15,2013-05-04 03:54:00,